Sturgis, MI

9:21 PM EDT on April 20, 2018 (GMT -0400)
Kirsch Municipal

Weather History for KIRS - April, 2014

Change the Weather History Date:

Tuesday, April 29, 2014

  Actual Average (KHAI) Record (KHAI)
Temperature  
Mean Temperature 60 °F -  
Max Temperature 73 °F 64 °F 82 °F (1951)
Min Temperature 46 °F 40 °F 26 °F (1977)
Degree Days  
Heating Degree Days 6    
Growing Degree Days 10 (Base 50)    
Moisture  
Dew Point 47 °F    
Average Humidity 72    
Maximum Humidity 100    
Minimum Humidity 31    
Precipitation  
Precipitation 0.00 in - - ()
Sea Level Pressure  
Sea Level Pressure 29.59 in    
Wind  
Wind Speed 13 mph (SSE)    
Max Wind Speed 38 mph    
Max Gust Speed 43 mph    
Visibility 7 miles    
Events Rain    
Averages and records for this station are not official NWS values.
T = Trace of Precipitation, MM = Missing Value Source: NWS Daily Summary

Daily Weather History Graph

Daily Weather History Graph

Search for Another Location

Airport or City:

Astronomy

Apr. 29, 2014 Rise Set
Actual Time 6:40 AM EDT 8:38 PM EDT
Civil Twilight 6:10 AM EDT 9:08 PM EDT
Nautical Twilight 5:33 AM EDT 9:45 PM EDT
Astronomical Twilight 4:54 AM EDT 10:25 PM EDT
Moon 6:58 AM EDT (4/29) 9:17 PM EDT (4/29)
Length of Visible Light 14h 57m
Length of Day
13h 57m
New Moon, 0% of the Moon is Illuminated
Apr 29
New Moon
May 6
First Quarter
May 14
Full
May 21
Last Quarter
May 28
New

Hourly Weather History & Observations

Time (EDT) Temp. Windchill Dew Point Humidity Pressure Visibility Wind Dir Wind Speed Gust Speed Precip Events Conditions
12:14 AM 46.4 °F 40.1 °F 46.4 °F 100% 29.67 in 7.0 mi East 15.0 mph 24.2 mph N/A   Overcast
12:35 AM 46.4 °F 39.0 °F 46.4 °F 100% 29.65 in 5.0 mi East 19.6 mph 25.3 mph N/A   Drizzle
12:55 AM 46.4 °F 39.0 °F 46.4 °F 100% 29.63 in 5.0 mi East 19.6 mph - N/A Rain Light Rain
1:14 AM 46.4 °F 39.8 °F 46.4 °F 100% 29.62 in 5.0 mi East 16.1 mph - N/A   Overcast
1:35 AM 48.2 °F - 46.4 °F 93% 29.61 in 5.0 mi East 18.4 mph 24.2 mph N/A   Overcast
1:55 AM 48.2 °F - 46.4 °F 93% 29.60 in 5.0 mi East 16.1 mph - N/A   Overcast
2:14 AM 48.2 °F - 46.4 °F 93% 29.60 in 5.0 mi East 18.4 mph 23.0 mph N/A   Overcast
2:35 AM 46.4 °F 39.5 °F 46.4 °F 100% 29.59 in 4.0 mi East 17.3 mph 23.0 mph N/A   Drizzle
2:55 AM 46.4 °F 39.5 °F 46.4 °F 100% 29.58 in 3.0 mi East 17.3 mph 21.9 mph N/A Rain Light Rain
3:14 AM 46.4 °F 39.2 °F 46.4 °F 100% 29.56 in 3.0 mi East 18.4 mph 23.0 mph N/A   Overcast
3:35 AM 48.2 °F - 46.4 °F 93% 29.56 in 3.0 mi East 16.1 mph 19.6 mph N/A   Overcast
3:55 AM 48.2 °F - 46.4 °F 93% 29.55 in 3.0 mi East 13.8 mph 20.7 mph N/A Rain Light Rain
4:14 AM 48.2 °F - 46.4 °F 93% 29.54 in 3.0 mi East 11.5 mph - N/A Rain Light Rain
4:35 AM 48.2 °F - 46.4 °F 93% 29.53 in 2.5 mi East 13.8 mph 17.3 mph N/A Rain Light Rain
4:55 AM 48.2 °F - 48.2 °F 100% 29.53 in 5.0 mi East 5.8 mph - N/A   Light Drizzle
5:15 AM 48.2 °F - 48.2 °F 100% 29.52 in 5.0 mi East 8.1 mph - N/A   Overcast
5:35 AM 48.2 °F - 48.2 °F 100% 29.52 in 4.0 mi Calm Calm - N/A   Overcast
5:54 AM 48.2 °F - 48.2 °F 100% 29.52 in 4.0 mi Calm Calm - N/A   Overcast
6:15 AM 50.0 °F - 48.2 °F 94% 29.51 in 3.0 mi Calm Calm - N/A Rain Rain
6:35 AM 50.0 °F - 50.0 °F 100% 29.53 in 2.5 mi Calm Calm - N/A Rain Heavy Rain
6:54 AM 50.0 °F - 48.2 °F 94% 29.54 in 1.8 mi Calm Calm - N/A Rain Heavy Rain
7:15 AM 50.0 °F - 48.2 °F 94% 29.51 in 2.5 mi Calm Calm - N/A Rain Light Rain
7:35 AM 50.0 °F - 50.0 °F 100% 29.50 in 2.5 mi East 4.6 mph - N/A Rain Light Rain
7:54 AM 51.8 °F - 51.8 °F 100% 29.50 in 3.0 mi ESE 3.5 mph - N/A   Mist
8:15 AM 51.8 °F - 51.8 °F 100% 29.52 in 3.0 mi Calm Calm - N/A   Mist
8:35 AM 53.6 °F - 53.6 °F 100% 29.52 in 2.5 mi Calm Calm - N/A   Mist
8:54 AM 53.6 °F - 53.6 °F 100% 29.52 in 1.8 mi Calm Calm - N/A   Mist
9:15 AM 53.6 °F - 53.6 °F 100% 29.53 in 1.8 mi Calm Calm - N/A   Mist
9:35 AM 55.4 °F - 53.6 °F 94% 29.53 in 4.0 mi Calm Calm - N/A   Mist
9:55 AM 57.2 °F - 55.4 °F 94% 29.54 in 7.0 mi Calm Calm - N/A   Unknown
10:15 AM 57.2 °F - 55.4 °F 94% 29.54 in 10.0 mi Calm Calm - N/A   Unknown
10:34 AM 59.0 °F - 55.4 °F 88% 29.54 in 10.0 mi South 3.5 mph - N/A   Clear
10:55 AM 60.8 °F - 55.4 °F 82% 29.54 in 10.0 mi South 6.9 mph - N/A   Clear
11:15 AM 62.6 °F - 55.4 °F 77% 29.55 in 10.0 mi South 8.1 mph - N/A   Clear
11:34 AM 64.4 °F - 55.4 °F 73% 29.56 in 10.0 mi South 9.2 mph - N/A   Clear
11:54 AM 66.2 °F - 53.6 °F 64% 29.56 in 10.0 mi South 10.4 mph - N/A   Clear
12:15 PM 68.0 °F - 53.6 °F 60% 29.56 in 10.0 mi South 10.4 mph - N/A   Clear
12:34 PM 68.0 °F - 50.0 °F 52% 29.56 in 10.0 mi SSE 12.7 mph 17.3 mph N/A   Clear
12:55 PM 69.8 °F - 48.2 °F 46% 29.57 in 10.0 mi South 13.8 mph 20.7 mph N/A   Clear
1:15 PM 69.8 °F - 44.6 °F 40% 29.57 in 10.0 mi SSW 11.5 mph 17.3 mph N/A   Clear
1:34 PM 69.8 °F - 44.6 °F 40% 29.56 in 10.0 mi South 11.5 mph 21.9 mph N/A   Clear
1:55 PM 69.8 °F - 44.6 °F 40% 29.56 in 10.0 mi South 20.7 mph 27.6 mph N/A   Scattered Clouds
2:15 PM 71.6 °F - 44.6 °F 38% 29.57 in 10.0 mi South 19.6 mph 27.6 mph N/A   Scattered Clouds
2:34 PM 69.8 °F - 42.8 °F 38% 29.56 in 10.0 mi South 20.7 mph 27.6 mph N/A   Scattered Clouds
2:55 PM 71.6 °F - 42.8 °F 35% 29.56 in 10.0 mi South 24.2 mph 31.1 mph N/A   Scattered Clouds
3:14 PM 71.6 °F - 42.8 °F 35% 29.56 in 10.0 mi South 13.8 mph 27.6 mph N/A   Scattered Clouds
3:35 PM 71.6 °F - 44.6 °F 38% 29.57 in 10.0 mi South 23.0 mph 31.1 mph N/A   Scattered Clouds
3:55 PM 73.4 °F - 44.6 °F 36% 29.57 in 10.0 mi South 23.0 mph 32.2 mph N/A   Scattered Clouds
4:14 PM 71.6 °F - 44.6 °F 38% 29.57 in 10.0 mi South 23.0 mph 31.1 mph N/A   Scattered Clouds
4:34 PM 71.6 °F - 42.8 °F 35% 29.57 in 10.0 mi South 27.6 mph 34.5 mph N/A   Scattered Clouds
5:15 PM 71.6 °F - 39.2 °F 31% 29.59 in 10.0 mi South 24.2 mph 35.7 mph N/A   Scattered Clouds
5:34 PM 71.6 °F - 39.2 °F 31% 29.59 in 10.0 mi SSW 24.2 mph 32.2 mph N/A   Scattered Clouds
5:55 PM 71.6 °F - 39.2 °F 31% 29.60 in 10.0 mi SSW 27.6 mph 36.8 mph N/A   Scattered Clouds
6:15 PM 71.6 °F - 41.0 °F 33% 29.61 in 10.0 mi SSW 20.7 mph 26.5 mph N/A   Clear
6:34 PM 69.8 °F - 39.2 °F 33% 29.62 in 10.0 mi SSW 27.6 mph 38.0 mph N/A   Clear
6:55 PM 69.8 °F - 39.2 °F 33% 29.64 in 10.0 mi SW 26.5 mph 31.1 mph N/A   Scattered Clouds
7:15 PM 66.2 °F - 39.2 °F 37% 29.67 in 10.0 mi SW 38.0 mph 42.6 mph N/A   Scattered Clouds
7:34 PM 62.6 °F - 42.8 °F 48% 29.69 in 10.0 mi SW 21.9 mph 28.8 mph N/A   Clear
7:55 PM 60.8 °F - 44.6 °F 55% 29.70 in 10.0 mi SSW 18.4 mph 29.9 mph N/A   Scattered Clouds
8:14 PM 60.8 °F - 46.4 °F 59% 29.71 in 10.0 mi South 15.0 mph - N/A   Mostly Cloudy
8:35 PM 59.0 °F - 46.4 °F 63% 29.72 in 10.0 mi South 9.2 mph - N/A Rain Light Rain
8:55 PM 57.2 °F - 46.4 °F 67% 29.72 in 10.0 mi South 10.4 mph 18.4 mph N/A Rain Light Rain
9:14 PM 57.2 °F - 46.4 °F 67% 29.70 in 10.0 mi South 8.1 mph - N/A   Light Drizzle
9:35 PM 57.2 °F - 46.4 °F 67% 29.72 in 10.0 mi South 5.8 mph - N/A   Scattered Clouds
9:55 PM 57.2 °F - 46.4 °F 67% 29.71 in 10.0 mi Calm Calm - N/A   Scattered Clouds
10:15 PM 55.4 °F - 46.4 °F 72% 29.71 in 10.0 mi Calm Calm - N/A   Clear
10:35 PM 55.4 °F - 46.4 °F 72% 29.70 in 10.0 mi SSE 4.6 mph - N/A   Clear
10:54 PM 55.4 °F - 44.6 °F 67% 29.69 in 10.0 mi South 5.8 mph - N/A   Clear
11:15 PM 55.4 °F - 44.6 °F 67% 29.69 in 10.0 mi Calm Calm - N/A   Clear
11:35 PM 53.6 °F - 42.8 °F 67% 29.70 in 10.0 mi SSE 5.8 mph - N/A   Clear
11:54 PM 53.6 °F - 42.8 °F 67% 29.71 in 10.0 mi SE 10.4 mph - N/A   Clear